Hourly Weather Roundup
Issued by NWS Central Illinois

Home | Current Version | Previous Version | Text Only | Print | Product List | Glossary On
Versions: 1 2 3 4 5 6 7 8 9 10 11 12 13 14 15 16 17 18 19 20 21 22 23 24 25 26 27 28 29 30 31 32 33 34 35 36 37 38 39 40 41 42 43 44 45 46 47 48 49 50
000
NZUS43 KILX 300910
HWRILX

AREA WEATHER ROUNDUP
NATIONAL WEATHER SERVICE, LINCOLN IL
400 AM CDT THU JUL 30 2015


CITY           SKY/WX    TMP DP  RH WIND       PRES   REMARKS
BLOOMINGTON    CLEAR     68  61  78 W12       30.10S
CHAMPAIGN      CLEAR     63  60  90 W6        30.09R
DANVILLE       CLEAR     64  60  88 W5        30.05R
DECATUR        CLEAR     70  60  70 NW9       30.10R
EFFINGHAM      CLEAR     63  58  83 W5        30.11S
FLORA          CLEAR     65  59  80 NW5       30.10R
GALESBURG      CLEAR     64  60  85 W5        30.11S
JACKSONVILLE   CLEAR     65  62  87 W6        30.12S
LACON          CLEAR     67  59  75 CALM      30.07S
LAWRENCEVILLE  CLEAR     65  60  84 NW5       30.08R
LITCHFIELD     CLEAR     62  59  90 CALM      30.12S
$$


CITY           SKY/WX    TMP DP  RH WIND       PRES   REMARKS
LINCOLN        CLEAR     68  60  75 NW5       30.10R
MACOMB         CLEAR     63  60  93 W6        30.14R
MATTOON        CLEAR     63  57  81 NW7       30.08S
MT CARMEL AP   CLEAR     64  61  88 NW5       30.08R
OLNEY-NOBLE AP CLEAR     63  59  88 NW5       30.09R
PARIS          CLEAR     63  60  91 W7        30.08S
PEORIA         CLEAR     67  60  78 W5        30.10S
PONTIAC        CLEAR     64  61  91 W5        30.08S
RANTOUL        CLEAR     65  62  90 W8        30.08S
ROBINSON       CLEAR     64  60  90 CALM      30.09R
SPRINGFIELD    CLEAR     63  59  87 W5        30.10F
TAYLORVILLE    CLEAR     61  59  94 CALM      30.10S
$$

...REGIONAL REPORTS...


CITY           SKY/WX    TMP DP  RH WIND       PRES   REMARKS
CHICAGO O`HARE CLEAR     69  57  65 W9        30.02R
KANKAKEE       CLEAR     63  61  91 W6        30.06S
MOLINE         CLEAR     63  58  83 SW6       30.08S
MOUNT STERLING NOT AVBL
MOUNT VERNON   CLEAR     64  55  72 CALM      30.10S
PITTSFIELD     CLEAR     66  61  85 W3        30.14S
QUINCY         CLEAR     66  60  81 W5        30.13S
ROCKFORD       CLEAR     63  57  81 W6        30.05S
$$


CITY           SKY/WX    TMP DP  RH WIND       PRES   REMARKS
BURLINGTON     CLEAR     65  61  87 W5        30.11F
CEDAR RAPIDS   CLEAR     60  60 100 W6        30.10R
DES MOINES     CLEAR     65  58  78 SW6       30.13S
KIRKSVILLE     CLEAR     62  60  93 W3        30.17S
OTTUMWA        CLEAR     62  59  90 W7        30.11S
ST LOUIS       PTCLDY    71  62  73 NW6       30.12S
$$


CITY           SKY/WX    TMP DP  RH WIND       PRES   REMARKS
TERRE HAUTE    CLEAR     64  59  83 CALM      30.07R
EVANSVILLE     PTCLDY    72  63  73 CALM      30.08R
INDIANAPOLIS   PTCLDY    67  58  72 NW6       30.04R
LAFAYETTE      CLEAR     61  60  97 W3        30.05R
MADISON        CLEAR     67  56  67 W7        30.01R
MILWAUKEE      CLEAR     69  54  58 W8        29.98R
$$




USA.gov is the U.S. government's official web portal to all federal, state and local government web resources and services.